Retour au catalogue

STARLINK-37249

ActifCommunicationsSSO
NORAD 68625·PAYLOAD·🇺🇸 United States

Lancé Apr 5, 2026 depuis Vandenberg Space Force Base

Loading…

Prochains Passages (prochaines 24 heures)

TLE

FraisSource: CelesTrak SupGP

Époque: Sep 14, 2026, 21:33 UTC

1 68625C 26073Z   26257.89840278  .00086690  00000+0  26919-2 0  2577
2 68625  97.2853  96.0338 0001684  95.9368 304.7127 15.33384963    11

Suivez STARLINK-37249 en temps réel avec AllMySat

Download on the App Store